Date,TemperatureHighF,TemperatureAvgF,TemperatureLowF,DewpointHighF,DewpointAvgF,DewpointLowF,HumidityHigh,HumidityAvg,HumidityLow,PressureMaxIn,PressureMinIn,WindSpeedMaxMPH,WindSpeedAvgMPH,GustSpeedMaxMPH,PrecipitationSumIn
2013-1-1,31.0,17.3,-3.4,26.9,10.4,-6.3,92,74,58,30.05,29.76,18,3,18,0.00
2013-1-2,16.9,6.1,-2.7,13.2,2.0,-6.1,94,82,74,30.35,29.97,16,2,19,0.00
2013-1-3,13.1,0.7,-14.1,7.8,-4.5,-16.4,84,76,65,30.37,30.03,11,2,13,0.00
2013-1-4,34.4,26.0,11.5,27.2,20.4,6.2,89,79,68,30.03,29.84,13,2,14,0.00
2013-1-5,33.6,23.4,7.7,26.7,15.7,3.9,89,73,57,30.32,29.88,21,3,23,0.00
2013-1-6,34.0,26.8,13.5,30.1,22.6,10.3,89,84,77,30.26,29.97,15,2,15,0.00
2013-1-7,41.3,18.2,10.0,21.4,13.7,6.3,94,82,74,30.47,30.04,15,3,21,0.00
2013-1-8,35.8,25.7,15.6,25.7,20.2,13.5,91,80,66,30.45,30.32,12,2,13,0.00
2013-1-9,42.9,27.2,15.2,33.1,22.2,13.3,93,82,56,30.45,30.01,12,2,17,0.00
2013-1-10,40.7,35.9,24.4,32.8,26.0,20.4,88,67,59,30.63,30.12,24,5,26,0.00
2013-1-11,36.4,28.8,18.2,33.9,24.8,15.8,100,85,64,30.64,30.18,11,1,12,0.04
2013-1-12,43.0,38.5,34.4,40.6,37.3,33.1,97,95,91,30.21,30.13,12,4,15,0.01
2013-1-13,43.8,40.1,35.7,43.0,39.2,34.8,97,97,95,30.18,29.97,15,3,15,0.00
2013-1-14,48.1,41.1,28.4,45.4,38.6,24.9,97,91,68,30.38,29.86,15,3,15,0.00
2013-1-15,34.5,30.2,25.7,26.7,23.8,21.4,87,77,64,30.42,30.31,11,1,0,0.00
2013-1-16,30.2,28.4,26.4,28.3,26.1,23.3,100,91,85,30.31,29.86,10,1,0,0.00
2013-1-17,32.7,21.9,8.1,29.1,14.8,-1.2,94,75,54,30.27,29.86,20,4,23,0.00
2013-1-18,18.7,9.6,-3.1,9.7,-0.4,-8.0,79,63,42,30.48,30.23,12,1,12,0.00
2013-1-19,37.8,29.6,18.5,27.3,20.6,9.3,92,69,61,30.33,29.80,15,4,16,0.04
2013-1-20,40.8,31.6,13.7,34.0,22.1,4.8,90,68,56,30.04,29.49,19,4,28,0.04
2013-1-21,20.4,13.5,6.1,12.7,6.6,1.0,88,74,54,30.15,29.90,12,2,0,0.00
2013-1-22,18.4,9.3,0.0,10.5,3.5,-5.0,88,77,58,30.18,29.89,12,3,15,0.00
2013-1-23,6.3,-2.2,-9.7,-3.2,-9.8,-12.8,81,66,52,30.30,30.16,15,2,17,0.00
2013-1-24,10.3,-1.1,-13.6,-3.5,-9.0,-16.2,82,67,45,30.45,30.27,20,2,23,0.00
2013-1-25,10.7,5.5,-5.1,4.4,-3.5,-8.9,81,65,50,30.50,30.20,5,0,0,0.00
2013-1-26,13.3,8.2,1.9,5.5,1.2,-2.6,86,73,58,30.41,30.19,13,2,18,0.00
2013-1-27,18.2,9.2,0.7,6.1,1.9,-2.5,87,72,51,30.61,30.40,11,2,0,0.00
2013-1-28,22.6,15.9,3.9,20.9,12.3,-0.1,93,85,70,30.57,30.07,9,0,0,0.00
2013-1-29,34.1,27.2,22.4,32.8,25.2,20.6,95,92,87,30.25,30.05,7,1,0,0.07
2013-1-30,52.9,43.0,34.1,52.4,42.1,32.8,100,96,95,30.05,29.33,14,3,14,0.51
2013-1-31,52.7,39.5,22.5,52.2,34.2,11.8,98,82,60,29.62,28.88,21,3,25,0.37
2013-2-1,22.6,19.3,13.0,13.5,10.3,6.7,84,68,56,30.20,29.62,13,2,14,0.00
2013-2-2,21.2,15.8,8.6,15.3,9.9,5.2,91,78,63,30.27,30.11,13,2,14,0.00
2013-2-3,25.4,15.7,8.2,15.6,-15.7,-99.9,91,80,57,30.12,29.84,7,1,0,0.00
2013-2-4,25.9,18.7,10.2,14.6,8.3,-0.2,91,68,35,29.92,29.82,19,2,21,0.00
2013-2-8,22.3,21.0,18.1,20.4,19.1,15.8,93,92,90,30.09,29.99,25,5,25,0.00
2013-2-9,18.0,10.9,-4.9,16.1,4.5,-8.6,92,76,53,30.46,30.00,26,10,29,0.00
2013-2-10,24.0,6.0,-11.6,8.4,-1.5,-14.2,86,71,42,30.61,30.36,9,1,0,0.03
2013-2-11,36.8,28.3,14.0,34.5,22.8,5.7,95,80,52,30.36,29.69,9,1,12,0.18
2013-2-12,39.8,35.9,31.3,30.6,27.9,23.1,81,73,66,29.92,29.68,9,1,12,0.08
2013-2-13,37.3,30.2,18.7,25.9,23.2,15.5,90,75,60,29.92,29.81,6,0,0,0.00
2013-2-14,37.1,30.8,26.1,27.1,23.8,20.8,91,76,56,30.01,29.82,6,0,0,0.00
2013-2-15,31.5,30.7,30.1,24.4,24.1,23.6,78,76,75,29.98,29.96,3,0,0,0.00
2013-2-16,29.1,24.6,19.3,19.8,12.9,6.6,76,61,52,30.08,29.98,15,6,17,0.00
2013-2-17,19.3,14.2,11.2,7.9,4.7,0.5,85,66,50,29.99,29.76,22,9,23,0.00
2013-2-18,26.4,13.9,1.6,5.7,1.2,-2.3,83,59,32,30.24,29.96,16,2,17,0.00
2013-2-19,41.2,27.4,10.3,31.4,18.3,3.3,95,70,44,30.24,29.67,12,1,12,0.04
2013-2-20,32.0,27.2,23.5,30.7,20.5,14.4,95,77,56,29.85,29.67,13,1,14,0.23
2013-2-21,23.4,17.9,11.5,17.1,11.4,4.7,91,75,63,30.49,29.85,7,1,0,0.00
2013-2-22,33.2,24.0,10.3,25.0,19.7,8.0,92,84,67,30.53,30.31,7,1,0,0.02
2013-2-23,35.0,32.4,28.8,31.6,28.3,23.7,95,85,75,30.31,29.97,12,2,14,0.05
2013-2-24,34.9,32.1,28.2,33.9,30.7,26.2,96,95,90,30.03,29.85,11,1,14,0.10
2013-2-25,36.3,31.3,27.0,31.5,29.3,25.5,96,92,81,30.33,30.04,4,0,0,0.02
2013-2-26,40.9,33.3,30.0,34.1,30.5,28.4,97,90,71,30.40,30.16,4,0,0,0.00
2013-2-27,39.1,34.2,31.4,35.5,31.1,28.4,95,88,76,30.17,29.70,12,2,14,0.18
2013-2-28,45.1,36.0,30.9,37.2,32.5,29.6,96,88,66,29.70,29.62,14,2,17,0.07
2013-3-1,35.2,32.6,30.9,31.5,29.0,27.2,93,86,78,29.84,29.68,16,5,16,0.00
2013-3-2,32.5,29.2,22.9,27.9,25.2,20.6,93,85,74,29.86,29.81,17,4,17,0.00
2013-3-3,29.4,25.5,22.4,25.1,22.0,19.4,91,86,79,29.84,29.76,7,2,0,0.09
2013-3-4,31.6,26.4,23.9,24.5,21.5,20.1,89,82,67,29.98,29.78,15,1,15,0.02
2013-3-5,33.4,28.2,23.9,27.4,24.2,20.7,92,85,76,30.19,29.98,14,4,15,0.00
2013-3-6,40.1,33.6,25.9,32.6,27.7,23.4,93,80,61,30.26,30.16,12,2,13,0.00
2013-3-7,35.8,32.4,29.5,27.0,24.8,22.4,89,73,59,30.27,30.22,20,6,20,0.00
2013-3-8,36.7,31.6,28.1,28.3,25.8,24.3,91,79,69,30.40,30.22,25,10,28,0.00
2013-3-9,44.5,34.0,24.7,30.8,24.7,20.5,86,69,47,30.44,30.37,15,4,16,0.00
2013-3-10,51.7,38.9,23.7,31.0,26.7,20.8,90,64,41,30.42,30.21,15,2,15,0.00
2013-3-11,47.2,42.7,37.8,36.6,33.0,29.6,77,68,55,30.26,30.03,18,4,18,0.00
2013-3-12,49.1,44.6,35.7,48.3,42.2,34.1,100,92,67,30.05,29.73,17,3,19,2.00
2013-3-13,41.0,34.7,27.5,37.1,32.5,26.0,97,92,75,29.90,29.81,7,0,0,0.14
2013-3-14,31.1,25.0,18.0,26.8,16.9,8.7,88,71,58,30.01,29.82,18,3,18,0.03
2013-3-15,34.5,23.3,11.4,28.4,16.1,5.9,94,74,54,30.01,29.66,19,3,19,0.01
2013-3-16,27.8,21.4,14.2,19.7,14.9,11.4,93,76,62,30.01,29.82,10,2,0,0.01
2013-3-17,26.9,19.6,10.5,16.0,10.5,5.2,91,69,49,30.44,30.00,14,2,18,0.00
2013-3-18,32.6,21.8,9.2,22.8,-7.4,-99.9,80,64,39,30.54,30.20,11,1,14,0.01
2013-3-19,32.6,29.3,27.0,31.3,27.6,22.9,96,93,77,30.20,29.79,7,1,0,0.25
2013-3-20,35.6,27.4,16.5,29.6,22.8,14.3,96,83,66,29.82,29.73,11,1,21,0.49
2013-3-21,34.7,27.0,17.6,22.2,15.9,-99.9,88,71,50,29.82,29.71,11,2,0,0.00
2013-3-22,35.4,28.1,24.4,27.0,-24.6,-99.9,89,75,57,29.84,29.73,11,1,14,0.01
2013-3-23,37.6,31.4,21.3,25.2,21.5,18.0,89,67,52,29.91,29.77,22,6,24,0.00
2013-3-24,38.9,33.6,24.4,27.6,24.9,20.4,85,70,60,29.96,29.87,14,3,16,0.00
2013-3-25,40.8,33.3,22.9,31.3,27.0,19.6,95,78,65,29.89,29.64,19,6,20,0.00
2013-3-26,43.9,37.5,32.0,32.2,1.5,-99.9,82,68,52,29.89,29.69,19,7,22,0.00
2013-3-27,48.7,42.8,39.9,35.4,-51.9,-99.9,65,59,53,30.00,29.86,15,4,16,0.00
2013-3-28,49.7,44.6,40.9,39.7,-58.6,-99.9,85,67,62,30.13,30.00,16,5,16,0.00
2013-3-29,48.0,45.2,39.3,38.6,-49.1,-99.9,84,68,63,30.16,30.09,10,3,0,0.00
2013-3-30,51.4,43.5,26.7,32.3,-29.0,-99.9,73,56,34,30.19,30.10,11,3,15,0.01
2013-3-31,55.9,40.6,24.6,39.5,28.5,19.3,93,64,39,30.17,29.79,15,2,15,0.08
2013-4-1,47.1,38.5,27.9,43.3,30.5,12.3,96,75,40,29.88,29.59,22,3,26,0.05
2013-4-2,35.0,28.9,21.2,19.4,15.0,10.8,73,56,42,30.00,29.87,24,3,27,0.00
2013-4-3,42.3,31.5,19.0,19.8,14.7,9.8,79,52,30,30.29,30.00,24,3,24,0.00
2013-4-4,52.1,36.9,20.7,28.3,20.9,14.0,78,54,36,30.36,29.98,17,2,19,0.00
2013-4-5,50.0,40.2,32.1,32.1,26.1,18.6,68,57,40,30.06,29.84,19,5,20,0.00
2013-4-6,41.3,31.2,23.5,18.6,13.4,8.7,70,49,30,30.36,30.06,18,5,21,0.00
2013-4-7,60.7,45.2,27.8,37.1,19.8,-99.9,71,50,32,30.33,29.88,17,4,23,0.00
2013-4-8,55.4,46.8,40.5,37.2,22.5,-99.9,88,64,48,30.20,29.96,21,2,21,0.01
2013-4-9,57.2,47.0,38.1,49.8,41.3,36.8,97,82,58,30.10,29.85,14,2,16,0.19
2013-4-10,50.0,44.0,41.4,44.7,41.4,38.7,100,91,79,30.08,29.97,12,2,12,0.32
2013-4-11,42.7,35.7,32.7,39.3,25.1,14.9,91,66,42,30.27,29.99,19,8,24,0.00
2013-4-12,34.5,32.7,30.4,33.0,29.2,21.9,95,87,62,30.26,29.88,13,1,12,0.52
2013-4-13,50.1,41.6,33.0,42.0,4.1,-99.9,96,84,68,29.99,29.85,11,1,12,0.16
2013-4-14,46.6,42.6,33.4,39.2,-27.1,-99.9,82,75,60,30.30,29.96,10,1,0,0.02
2013-4-15,59.7,45.5,33.4,40.4,-45.1,-99.9,82,65,44,30.43,30.26,11,1,12,0.00
2013-4-16,53.6,53.6,53.6,-99.9,-99.9,-99.9,59,59,59,30.31,30.00,0,0,0,0.00
2013-4-17,56.9,53.4,49.1,38.9,-49.5,-99.9,60,54,44,30.42,30.15,17,3,19,0.00
2013-4-18,63.5,55.3,51.3,45.8,-63.7,-99.9,67,49,45,30.42,30.01,13,4,16,0.00
2013-4-19,75.9,64.0,53.2,61.5,-23.0,-99.9,83,63,50,30.02,29.48,23,5,28,0.15
2013-4-20,53.2,48.4,39.9,34.9,-51.3,-99.9,83,65,46,30.35,29.72,20,6,23,0.01
2013-4-21,47.2,41.5,36.6,26.8,-53.8,-99.9,58,48,35,30.75,30.35,16,9,24,0.00
2013-4-22,57.6,48.2,41.6,29.6,-52.7,-99.9,49,41,28,30.79,30.57,14,3,17,0.00
2013-4-23,53.2,51.3,46.6,38.4,-68.3,-99.9,67,48,36,30.59,30.21,14,3,15,0.00
2013-4-24,71.8,58.2,48.3,48.7,-47.4,-99.9,67,58,39,30.21,29.68,14,3,17,0.00
2013-4-25,65.8,57.9,45.4,36.7,-47.4,-99.9,65,50,38,30.35,29.70,10,1,12,0.00
2013-4-26,55.4,51.7,47.6,41.5,-53.3,-99.9,65,53,49,30.51,30.34,12,1,14,0.00
2013-4-27,62.2,54.0,48.5,42.1,-45.6,-99.9,75,49,31,30.51,30.34,6,0,0,0.00
2013-4-28,72.8,61.9,56.5,45.6,-45.6,-99.9,49,43,27,30.37,30.14,11,1,0,0.00
2013-4-29,66.0,59.9,56.8,49.4,-53.0,-99.9,76,58,47,30.26,30.18,10,0,12,0.00
2013-4-30,74.5,57.1,41.3,54.1,-39.0,-99.9,74,47,38,30.35,30.26,11,1,13,0.00
2013-5-1,78.3,68.8,63.5,52.8,-34.8,-99.9,57,49,31,30.49,30.31,7,1,0,0.00
2013-5-2,79.0,69.7,63.5,55.2,-39.7,-99.9,53,47,36,30.49,30.32,12,2,0,0.00
2013-5-3,74.7,70.4,60.6,46.5,-44.5,-99.9,51,41,30,30.54,30.35,11,1,0,0.00
2013-5-4,75.2,66.5,62.6,53.7,-39.5,-99.9,59,51,37,30.39,30.22,11,1,12,0.00
2013-5-5,78.8,68.2,63.4,50.7,-42.1,-99.9,59,48,28,30.31,30.14,10,0,0,0.00
2013-5-6,78.5,69.0,61.3,52.7,-39.5,-99.9,63,39,17,30.27,30.09,9,1,0,0.00
2013-5-7,83.0,69.4,41.3,56.9,-39.8,-99.9,62,36,17,30.19,30.05,9,0,0,0.00
2013-5-8,78.3,57.8,41.3,63.1,-39.8,-99.9,91,59,38,30.20,30.05,10,1,16,0.03
2013-5-9,74.8,66.5,59.5,62.9,-26.3,-99.9,98,78,50,30.05,29.89,6,0,0,0.00
2013-5-10,71.2,64.3,61.8,63.2,-34.0,-99.9,93,83,71,30.03,29.83,10,1,0,0.10
2013-5-11,68.7,64.1,61.8,65.3,-25.2,-99.9,94,84,65,29.85,29.66,11,1,12,0.01
2013-5-12,63.0,57.0,48.5,51.0,-37.0,-99.9,73,60,36,29.85,29.68,14,2,20,0.00
2013-5-13,52.3,48.5,44.2,35.7,-42.6,-99.9,65,55,49,30.12,29.84,14,1,14,0.00
2013-5-14,57.7,51.0,47.7,39.2,-40.8,-99.9,65,55,38,30.18,30.05,12,1,12,0.00
2013-5-15,62.6,53.7,51.4,47.2,-70.5,-99.9,78,65,43,30.10,29.66,14,1,14,0.00
2013-5-16,75.0,60.9,53.9,51.5,-38.5,-99.9,78,61,31,29.93,29.66,17,3,21,0.00
2013-5-17,67.0,60.0,50.9,48.5,-36.3,-99.9,76,60,44,30.27,29.93,15,3,15,0.00
2013-5-18,73.2,66.4,59.1,51.1,-35.3,-99.9,72,50,33,30.36,30.24,6,0,0,0.00
2013-5-19,67.2,63.7,56.7,56.6,-27.7,-99.9,94,69,53,30.33,30.21,9,1,0,0.10
2013-5-20,73.3,69.4,63.8,67.0,40.2,-99.9,90,84,77,30.07,30.01,4,0,0,0.00
2013-5-21,68.3,68.3,68.3,-99.9,-99.9,-99.9,88,88,88,30.02,29.85,0,0,0,0.00
2013-5-22,78.8,71.0,67.1,72.3,-22.5,-99.9,95,86,76,29.91,29.77,11,1,0,0.00
2013-5-23,78.8,71.7,69.4,69.4,-33.3,-99.9,88,83,70,29.82,29.73,10,1,0,0.01
2013-5-24,69.4,69.4,69.4,-99.9,-99.9,-99.9,88,88,88,30.08,29.73,0,0,0,0.00
2013-5-25,69.4,59.4,41.6,40.7,-83.6,-99.9,94,90,88,30.06,29.96,24,2,28,0.18
2013-5-26,47.4,44.0,41.6,44.5,-51.2,-99.9,94,92,85,30.17,29.92,16,3,18,0.08
2013-5-27,68.4,56.1,46.4,49.4,-35.3,-99.9,92,71,39,30.24,30.14,8,2,0,0.00
2013-5-28,72.0,63.6,58.3,55.3,-34.0,-99.9,74,62,42,30.28,30.13,6,0,0,0.00
2013-5-29,67.2,63.7,61.3,64.3,-53.5,-99.9,97,84,74,30.14,29.97,5,0,0,0.00
2013-5-30,85.9,72.7,65.8,71.8,-42.3,-99.9,93,82,57,30.13,30.03,4,0,0,0.00
2013-5-31,89.7,84.0,74.7,75.3,-20.0,-99.9,84,64,48,30.12,29.92,7,1,0,0.00
2013-6-1,87.0,78.5,74.7,74.2,-24.8,-99.9,80,74,58,29.98,29.82,8,1,0,0.00
2013-6-2,86.5,78.9,75.6,75.2,-70.1,-99.9,89,78,66,29.86,29.70,17,8,17,0.17
2013-6-3,80.5,73.0,62.6,61.2,-30.0,-99.9,78,65,44,29.92,29.80,17,8,12,0.00
2013-6-4,67.3,62.8,57.3,52.1,-35.4,-99.9,68,59,51,30.17,29.92,13,2,18,0.00
2013-6-5,71.1,64.0,60.4,54.5,-36.5,-99.9,68,58,43,30.27,30.15,13,3,13,0.00
2013-6-6,66.3,60.3,55.9,55.7,-34.7,-99.9,89,73,62,30.22,30.12,10,3,13,0.00
2013-6-7,56.4,55.4,54.5,54.7,-58.3,-99.9,96,92,89,30.12,29.92,2,0,0,0.40
2013-6-8,62.2,57.9,54.5,59.1,-39.2,-99.9,96,94,87,30.08,29.82,5,0,0,0.01
2013-6-9,76.8,66.8,60.4,65.3,-30.7,-99.9,94,81,51,30.23,30.07,6,0,0,0.00
2013-6-10,73.2,68.0,62.9,64.3,-32.7,-99.9,91,80,60,30.25,29.99,6,0,0,0.00
2013-6-11,62.9,61.7,59.0,60.1,-76.4,-99.9,95,92,91,29.99,29.62,2,0,0,0.21
2013-6-12,59.0,59.0,59.0,-99.9,-99.9,-99.9,95,95,95,29.71,29.66,0,0,0,0.00
2013-10-3,71.1,61.7,47.3,56.5,51.1,45.5,94,70,48,30.16,30.06,3,0,0,0.00
2013-10-4,61.3,53.7,43.3,55.2,50.1,42.2,97,88,75,30.17,30.11,9,1,12,0.00
2013-10-5,60.0,57.2,53.1,52.4,48.8,45.1,85,74,59,30.20,30.13,9,2,0,0.00
2013-10-6,58.5,55.4,52.7,53.2,50.0,46.0,95,82,73,30.20,30.07,10,2,0,0.25
2013-10-7,73.5,61.0,51.0,65.0,57.2,47.9,96,87,72,30.07,29.62,14,2,17,0.95
2013-10-8,59.6,50.4,36.7,49.0,41.6,34.9,94,73,47,30.44,29.95,11,1,13,0.00
2013-10-9,63.7,46.2,32.5,47.4,38.5,31.5,100,78,38,30.54,30.40,5,0,0,0.01
2013-10-10,64.0,49.4,37.0,52.0,13.6,-99.9,96,83,56,30.41,30.24,4,0,0,0.00
2013-10-11,66.9,55.4,45.6,51.8,-11.1,-99.9,97,75,53,30.25,30.18,7,1,0,0.00